Location: Huberhof
(49.2050°N, 7.4980°E)
Time: 03:32:02
(UTC+00:00)

Cosmos 1315 Rocket - Pass Details

Date: 29 October 2020
Orbit: 530 x 567 km, 81.2° (Epoch: 25 November)

Event Time Altitude Azimuth Distance (km) Brightness Sun altitude
Rises 17:40:49 0° 174° (S) 2,680 6.3 -14.8°
Reaches altitude 10° 17:43:00 10° 168° (SSE) 1,799 5.4 -15.1°
Maximum altitude 17:46:47 44° 95° (E) 763 3.1 -15.8°
Drops below altitude 10° 17:50:37 10° 24° (NNE) 1,835 5.2 -16.4°
Enters shadow 17:51:59 - 19° (NNE) 2,382 5.9 -16.6°
